Regional Weather Roundup
Issued by NWS

Home | Current Version | Previous Version | Text Only | Print | Product List | Glossary On
Versions: 1 2 3 4 5 6 7 8 9 10 11 12 13 14 15 16 17 18 19 20 21 22 23 24 25 26 27 28 29 30 31 32 33 34 35 36 37 38 39 40 41 42 43 44 45 46 47 48 49 50
000
ASUS45 KBOI 210710
RWRID

IDAHO REGIONAL WEATHER ROUNDUP
NATIONAL WEATHER SERVICE BOISE ID
100 AM MDT FRI JUL 21 2017

NOTE: "FAIR" INDICATES FEW OR NO CLOUDS BELOW 12000 FEET
WITH NO SIGNIFICANT WEATHER AND/OR OBSTRUCTIONS TO VISIBILITY

IDZ012-014-210800-
SOUTHWEST IDAHO


CITY           SKY/WX    TMP DP  RH WIND       PRES   REMARKS
BOISE          CLEAR     72  36  26 E5        29.97R
CALDWELL       CLEAR     70  48  45 W12       29.97R
MOUNTAIN HOME  CLEAR     70  37  29 W5        29.98R
$$

IDZ016-017-210800-
SOUTHCENTRAL IDAHO


CITY           SKY/WX    TMP DP  RH WIND       PRES   REMARKS
BURLEY         CLEAR     65  44  46 W7        30.04R
JEROME         CLEAR     63  44  50 W7        30.05R
TWIN FALLS     CLEAR     64  39  39 S13       30.05R
$$

IDZ019>023-210800-
SOUTHEAST IDAHO


CITY           SKY/WX    TMP DP  RH WIND       PRES   REMARKS
IDAHO FALLS    CLOUDY    61  43  51 S10       30.07R
POCATELLO      PTCLDY    74  36  25 SW13      30.06S
REXBURG        CLOUDY    66  39  37 SW10      30.05R
$$

IDZ006-010-011-018-031-032-210800-
CENTRAL IDAHO MOUNTAINS


CITY           SKY/WX    TMP DP  RH WIND       PRES   REMARKS
MCCALL         CLEAR     59  40  49 CALM      30.13R
HAILEY         CLEAR     57  32  38 NW8       30.14S
STANLEY          N/A     47  29  49 S3        30.24R
SALMON         NOT AVBL
CHALLIS        CLEAR     60  34  37 CALM      30.11R
$$

IDZ002-004-006-007-026-210800-
NORTHERN IDAHO


CITY           SKY/WX    TMP DP  RH WIND       PRES   REMARKS
LEWISTON       MOCLDY    67  36  31 S5        30.02S
LOWELL           N/A     61  47  59 N3        30.07R
COEUR D`ALENE  CLEAR     61  41  47 CALM      30.05R
MULLAN PASS    CLEAR     51  32  48 SW8       30.17S
$$



USA.gov is the U.S. government's official web portal to all federal, state and local government web resources and services.